Ypsilanti, MI

10:23 PM EST on December 09, 2016 (GMT -0500)
Willow Run

Weather History for KYIP - March, 2012

Change the Weather History Date:

Sunday, March 4, 2012

  Actual Average Record
Temperature  
Mean Temperature 34 °F -  
Max Temperature 39 °F 43 °F 66 °F (1983)
Min Temperature 28 °F 25 °F 1 °F (2014)
Degree Days  
Heating Degree Days 32    
Moisture  
Dew Point 21 °F    
Average Humidity 65    
Maximum Humidity 80    
Minimum Humidity 48    
Precipitation  
Precipitation 0.00 in - - ()
Sea Level Pressure  
Sea Level Pressure 29.81 in    
Wind  
Wind Speed 9 mph (NW)    
Max Wind Speed 14 mph    
Max Gust Speed 22 mph    
Visibility 9 miles    
Events Snow    
Averages and records for this station are not official NWS values.
T = Trace of Precipitation, MM = Missing Value Source: NWS Daily Summary

Daily Weather History Graph

Daily Weather History Graph

Search for Another Location

Airport or City:

Trip Planner

Search our weather history database for the weather conditions in past years. The results will help you decide how hot, cold, wet, or windy it might be!

Date:

Astronomy

Mar. 04, 2012 Rise Set
Actual Time 7:03 AM EST 6:28 PM EST
Civil Twilight 6:35 AM EST 6:56 PM EST
Nautical Twilight 6:03 AM EST 7:28 PM EST
Astronomical Twilight 5:30 AM EST 8:01 PM EST
Moon 2:36 PM EST (3/4) 4:27 AM EST (3/4)
Length of Visible Light 12h 20m
Length of Day
11h 24m
Waxing Gibbous, 83% of the Moon is Illuminated
Mar 4
Waxing Gibbous
Mar 8
Full
Mar 14
Last Quarter
Mar 22
New
Mar 30
First Quarter

Hourly Weather History & Observations

Time (EST) Temp. Windchill Dew Point Humidity Pressure Visibility Wind Dir Wind Speed Gust Speed Precip Events Conditions
12:07 AM 32.0 °F 23.0 °F 23.0 °F 69% 29.72 in 9.0 mi West 11.5 mph - 0.00 in   Overcast
12:53 AM 32.0 °F 22.5 °F 24.1 °F 73% 29.73 in 10.0 mi West 12.7 mph - 0.00 in   Overcast
1:53 AM 32.0 °F 24.2 °F 25.0 °F 75% 29.74 in 3.0 mi WNW 9.2 mph - 0.00 in Snow Light Snow
2:38 AM 30.2 °F 21.9 °F 19.4 °F 64% 29.74 in 10.0 mi WNW 9.2 mph - 0.00 in   Overcast
2:53 AM 30.9 °F 22.8 °F 19.0 °F 61% 29.75 in 10.0 mi NW 9.2 mph - 0.00 in   Overcast
3:53 AM 30.0 °F 23.2 °F 19.0 °F 64% 29.75 in 10.0 mi NW 6.9 mph - N/A   Overcast
4:53 AM 30.0 °F 24.1 °F 19.9 °F 66% 29.76 in 10.0 mi WNW 5.8 mph - N/A   Overcast
5:53 AM 28.9 °F 23.9 °F 21.0 °F 72% 29.76 in 10.0 mi WNW 4.6 mph - N/A   Overcast
6:53 AM 28.0 °F 22.8 °F 21.0 °F 75% 29.78 in 10.0 mi NW 4.6 mph - N/A   Overcast
7:53 AM 28.9 °F 21.1 °F 21.0 °F 72% 29.79 in 10.0 mi WNW 8.1 mph - N/A   Overcast
8:53 AM 30.9 °F 21.7 °F 19.9 °F 64% 29.80 in 10.0 mi WNW 11.5 mph - N/A   Overcast
9:21 AM 30.2 °F 20.2 °F 19.4 °F 64% 29.78 in 10.0 mi WNW 12.7 mph - N/A   Mostly Cloudy
9:53 AM 32.0 °F 23.0 °F 19.9 °F 61% 29.80 in 10.0 mi WNW 11.5 mph - N/A   Mostly Cloudy
10:26 AM 33.8 °F 25.8 °F 19.4 °F 56% 29.79 in 10.0 mi West 10.4 mph 18.4 mph N/A   Scattered Clouds
10:53 AM 34.0 °F 25.0 °F 19.9 °F 56% 29.81 in 10.0 mi NNW 12.7 mph - N/A   Overcast
11:53 AM 35.1 °F 25.9 °F 18.0 °F 50% 29.81 in 10.0 mi WNW 13.8 mph 21.9 mph N/A   Overcast
12:53 PM 39.0 °F 33.4 °F 21.0 °F 49% 29.81 in 10.0 mi NW 8.1 mph - N/A   Mostly Cloudy
1:53 PM 37.0 °F 29.3 °F 19.0 °F 48% 29.80 in 10.0 mi WNW 11.5 mph - N/A   Overcast
2:53 PM 37.0 °F 28.9 °F 19.0 °F 48% 29.80 in 10.0 mi WNW 12.7 mph - N/A   Overcast
3:53 PM 37.0 °F 29.3 °F 19.9 °F 50% 29.81 in 10.0 mi West 11.5 mph - N/A   Overcast
4:53 PM 36.0 °F 27.5 °F 21.0 °F 55% 29.82 in 10.0 mi NW 12.7 mph - N/A   Overcast
5:53 PM 34.0 °F 26.6 °F 19.9 °F 56% 29.84 in 10.0 mi NW 9.2 mph - N/A   Mostly Cloudy
6:53 PM 32.0 °F 23.0 °F 21.0 °F 64% 29.85 in 10.0 mi NNW 11.5 mph - N/A   Overcast
7:53 PM 30.9 °F 24.3 °F 21.9 °F 69% 29.87 in 10.0 mi NW 6.9 mph - N/A   Overcast
8:53 PM 30.9 °F 27.5 °F 21.9 °F 69% 29.88 in 10.0 mi NW 3.5 mph - N/A   Overcast
9:53 PM 30.9 °F 26.2 °F 23.0 °F 72% 29.89 in 10.0 mi NNW 4.6 mph - N/A   Overcast
10:44 PM 30.2 °F 26.7 °F 21.2 °F 69% 29.89 in 4.0 mi NNE 3.5 mph - 0.00 in Snow Light Snow
10:53 PM 30.9 °F 27.5 °F 21.9 °F 69% 29.91 in 3.0 mi NNW 3.5 mph - 0.00 in Snow Light Snow
11:09 PM 30.2 °F - 21.2 °F 69% 29.89 in 5.0 mi Calm Calm - 0.00 in Snow Light Snow
11:31 PM 28.4 °F 21.2 °F 23.0 °F 80% 29.89 in 8.0 mi ENE 6.9 mph - 0.00 in   Overcast
11:43 PM 28.4 °F 20.4 °F 23.0 °F 80% 29.89 in 5.0 mi ENE 8.1 mph - 0.00 in Snow Light Snow
11:53 PM 28.0 °F 21.7 °F 21.9 °F 78% 29.91 in 4.0 mi ENE 5.8 mph - 0.00 in Snow Light Snow